Weather History for KSGJ - January, 1999

Change the Weather History Date:

Thursday, January 7, 1999

  Actual Average Record
Temperature  
Mean Temperature 46 °F -  
Max Temperature 60 °F 62 °F 81 °F (1982)
Min Temperature 33 °F 44 °F 26 °F (2014)
Degree Days  
Heating Degree Days 18    
Moisture  
Dew Point 36 °F    
Average Humidity 67    
Maximum Humidity 87    
Minimum Humidity 42    
Precipitation  
Precipitation 0.00 in - - ()
Sea Level Pressure  
Sea Level Pressure 30.37 in    
Wind  
Wind Speed 4 mph (North)    
Max Wind Speed 10 mph    
Max Gust Speed -    
Visibility 10 miles    
Events      
Averages and records for this station are not official NWS values.
T = Trace of Precipitation, MM = Missing Value Source: NWS Daily Summary

Daily Weather History Graph

Daily Weather History Graph

Search for Another Location

Airport or City:

Trip Planner

Search our weather history database for the weather conditions in past years. The results will help you decide how hot, cold, wet, or windy it might be!

Date:

Astronomy

Jan. 07, 1999 Rise Set
Actual Time 7:22 AM EST 5:41 PM EST
Civil Twilight 6:56 AM EST 6:07 PM EST
Nautical Twilight 6:26 AM EST 6:36 PM EST
Astronomical Twilight 5:57 AM EST 7:05 PM EST
Moon 11:22 PM EST (1/7) 11:15 AM EST (1/7)
Length of Visible Light 11h 11m
Length of Day
10h 19m
Waning Gibbous, 68% of the Moon is Illuminated
Jan 7
Waning Gibbous
Jan 9
Last Quarter
Jan 17
New
Jan 24
First Quarter
Jan 31
Full

Hourly Weather History & Observations

Time (EST) Temp. Windchill Dew Point Humidity Pressure Visibility Wind Dir Wind Speed Gust Speed Precip Events Conditions
12:15 AM 33.8 °F - 28.4 °F 81% 30.37 in 10.0 mi Calm Calm - N/A   Clear
12:35 AM 33.8 °F - 28.4 °F 81% 30.37 in 10.0 mi Calm Calm - N/A   Clear
12:55 AM 33.8 °F - 28.4 °F 81% 30.37 in 10.0 mi Calm Calm - N/A   Clear
1:15 AM 33.8 °F - 30.2 °F 87% 30.38 in 10.0 mi Calm Calm - N/A   Clear
1:35 AM 33.8 °F 30.8 °F 30.2 °F 87% 30.38 in 10.0 mi WNW 3.5 mph - N/A   Clear
1:55 AM 37.4 °F 34.9 °F 33.8 °F 87% 30.37 in 10.0 mi NW 3.5 mph - N/A   Clear
2:15 AM 35.6 °F - 30.2 °F 81% 30.36 in 10.0 mi Calm Calm - N/A   Clear
2:35 AM 33.8 °F 30.8 °F 30.2 °F 87% 30.36 in 10.0 mi NW 3.5 mph - N/A   Clear
2:55 AM 35.6 °F 31.7 °F 30.2 °F 81% 30.36 in 10.0 mi NW 4.6 mph - N/A   Clear
3:15 AM 35.6 °F - 30.2 °F 81% 30.35 in 10.0 mi Calm Calm - N/A   Clear
3:35 AM 33.8 °F - 30.2 °F 87% 30.36 in 10.0 mi Calm Calm - N/A   Clear
3:55 AM 37.4 °F 34.9 °F 33.8 °F 87% 30.37 in 10.0 mi NW 3.5 mph - N/A   Clear
4:15 AM 35.6 °F - 30.2 °F 81% 30.36 in 10.0 mi Calm Calm - N/A   Clear
4:35 AM 35.6 °F - 30.2 °F 81% 30.36 in 10.0 mi Calm Calm - N/A   Clear
4:55 AM 35.6 °F 30.7 °F 30.2 °F 81% 30.37 in 10.0 mi NW 5.8 mph - N/A   Clear
5:15 AM 35.6 °F - 30.2 °F 81% 30.36 in 10.0 mi Calm Calm - N/A   Clear
5:35 AM 33.8 °F 28.6 °F 30.2 °F 87% 30.37 in 10.0 mi NW 5.8 mph - N/A   Clear
5:55 AM 39.2 °F 34.2 °F 33.8 °F 81% 30.37 in 10.0 mi NW 6.9 mph - N/A   Clear
6:15 AM 39.2 °F 34.2 °F 33.8 °F 81% 30.37 in 10.0 mi NW 6.9 mph - N/A   Clear
6:35 AM 41.0 °F 39.0 °F 33.8 °F 76% 30.38 in 10.0 mi WNW 3.5 mph - N/A   Clear
6:55 AM 35.6 °F 31.7 °F 30.2 °F 81% 30.38 in 10.0 mi NW 4.6 mph - N/A   Clear
7:15 AM 39.2 °F 35.0 °F 33.8 °F 81% 30.38 in 10.0 mi NW 5.8 mph - N/A   Clear
7:35 AM 39.2 °F 35.0 °F 33.8 °F 81% 30.39 in 10.0 mi NW 5.8 mph - N/A   Clear
7:55 AM 41.0 °F 38.0 °F 35.6 °F 81% 30.39 in 10.0 mi NW 4.6 mph - N/A   Clear
8:15 AM 42.8 °F 40.1 °F 37.4 °F 81% 30.39 in 10.0 mi NW 4.6 mph - N/A   Clear
8:35 AM 44.6 °F 40.7 °F 37.4 °F 76% 30.40 in 10.0 mi NW 6.9 mph - N/A   Clear
8:55 AM 46.4 °F 41.9 °F 39.2 °F 76% 30.40 in 10.0 mi NW 9.2 mph - N/A   Clear
9:15 AM 48.2 °F - 41.0 °F 76% 30.41 in 10.0 mi NNW 6.9 mph - N/A   Clear
9:35 AM 51.8 °F - 41.0 °F 67% 30.42 in 10.0 mi North 8.1 mph - N/A   Clear
9:55 AM 53.6 °F - 41.0 °F 62% 30.43 in 10.0 mi NNW 6.9 mph - N/A   Clear
10:15 AM 55.4 °F - 39.2 °F 54% 30.42 in 10.0 mi North 4.6 mph - N/A   Clear
10:35 AM 57.2 °F - 35.6 °F 44% 30.43 in 10.0 mi North 4.6 mph - N/A   Clear
10:55 AM 57.2 °F - 35.6 °F 44% 30.42 in 10.0 mi NE 4.6 mph - N/A   Clear
11:35 AM 59.0 °F - 37.4 °F 45% 30.41 in 10.0 mi NNE 4.6 mph - N/A   Clear
11:55 AM 59.0 °F - 39.2 °F 48% 30.41 in 10.0 mi NNE 8.1 mph - N/A   Clear
12:15 PM 59.0 °F - 39.2 °F 48% 30.40 in 10.0 mi NNE 9.2 mph - N/A   Clear
12:35 PM 59.0 °F - 39.2 °F 48% 30.39 in 10.0 mi NNE 9.2 mph - N/A   Clear
12:55 PM 59.0 °F - 39.2 °F 48% 30.37 in 10.0 mi NNE 8.1 mph - N/A   Clear
1:15 PM 60.8 °F - 39.2 °F 45% 30.36 in 10.0 mi NNE 9.2 mph - N/A   Clear
1:35 PM 60.8 °F - 39.2 °F 45% 30.36 in 10.0 mi NNE 10.4 mph - N/A   Clear
1:55 PM 60.8 °F - 39.2 °F 45% 30.35 in 10.0 mi NE 9.2 mph - N/A   Clear
2:15 PM 60.8 °F - 37.4 °F 42% 30.34 in 10.0 mi NNE 10.4 mph - N/A   Clear
2:35 PM 60.8 °F - 37.4 °F 42% 30.34 in 10.0 mi NNE 10.4 mph - N/A   Clear
2:55 PM 60.8 °F - 39.2 °F 45% 30.34 in 10.0 mi NE 10.4 mph - N/A   Clear
3:15 PM 60.8 °F - 39.2 °F 45% 30.33 in 10.0 mi NNE 9.2 mph - N/A   Clear
3:35 PM 59.0 °F - 39.2 °F 48% 30.33 in 10.0 mi NNE 8.1 mph - N/A   Clear
3:55 PM 59.0 °F - 41.0 °F 51% 30.33 in - NE 9.2 mph - N/A   Unknown
4:15 PM 59.0 °F - 39.2 °F 48% 30.32 in 10.0 mi NNE 6.9 mph - N/A   Clear
4:35 PM 57.2 °F - 39.2 °F 51% 30.32 in 10.0 mi NE 6.9 mph - N/A   Clear
4:55 PM 57.2 °F - 41.0 °F 55% 30.32 in 10.0 mi ENE 5.8 mph - N/A   Clear
5:15 PM 57.2 °F - 41.0 °F 55% 30.32 in 10.0 mi NE 4.6 mph - N/A   Clear
5:35 PM 55.4 °F - 41.0 °F 58% 30.33 in 10.0 mi NE 4.6 mph - N/A   Clear
5:55 PM 55.4 °F - 41.0 °F 58% 30.33 in 10.0 mi NNE 3.5 mph - N/A   Clear
6:15 PM 53.6 °F - 42.8 °F 67% 30.33 in 10.0 mi NNE 3.5 mph - N/A   Clear
6:35 PM 53.6 °F - 42.8 °F 67% 30.34 in 10.0 mi Calm Calm - N/A   Clear
6:55 PM 51.8 °F - 41.0 °F 67% 30.33 in 10.0 mi Calm Calm - N/A   Clear
7:15 PM 50.0 °F - 41.0 °F 71% 30.34 in 10.0 mi Calm Calm - N/A   Clear
7:35 PM 48.2 °F - 41.0 °F 76% 30.34 in 10.0 mi Calm Calm - N/A   Clear
7:55 PM 48.2 °F - 39.2 °F 71% 30.33 in 10.0 mi Calm Calm - N/A   Clear
9:15 PM 46.4 °F - 39.2 °F 76% 30.33 in 10.0 mi Calm Calm - N/A   Clear
9:55 PM 46.4 °F - 41.0 °F 81% 30.33 in 10.0 mi Calm Calm - N/A   Clear
10:15 PM 46.4 °F - 39.2 °F 76% 30.33 in 10.0 mi Calm Calm - N/A   Clear
10:35 PM 44.6 °F - 39.2 °F 81% 30.33 in 10.0 mi Calm Calm - N/A   Clear
10:55 PM 44.6 °F - 39.2 °F 81% 30.33 in 10.0 mi Calm Calm - N/A   Clear
11:15 PM 44.6 °F - 39.2 °F 81% 30.32 in 10.0 mi Calm Calm - N/A   Clear
11:35 PM 44.6 °F - 39.2 °F 81% 30.32 in 10.0 mi Calm Calm - N/A   Clear
11:55 PM 44.6 °F - 37.4 °F 76% 30.31 in 10.0 mi Calm Calm - N/A   Clear